Portada
METAR-TAF:

METAR-TAF

Aeroports :

Acajutla, El Salvador

latitud: 13-34N, longitud: 089-50W, altitud: 15 m

Observació

L'informe es va fer fa 10 hores i 9 minuts, a les 20:50 UTC
Vent 6 kt del Oest
Temperatura 33°C
Humitat 59%
Pressió 1011 hPa
Visibilitat 10 km o més
Escasses núvols a una alçada de 3300 ft

METAR: MSAC 212050Z 27006KT 9999 FEW033 33/24 Q1010 A2984

Hora: 00:59 (06:59 UTC)


TAF: manca

Observacions i pronòstics meteorològics de més de 4000 aeroports (METAR i TAF).

Les estacions disponibles són els punts grocs i vermells al mapa.

Posi el ratolí al punt desitjat per veure el nom de l'estació.

Feu clic per veure les observacions i els pronòstics meteorològics.

Per canviar el mapa: feu clic els botons verds amb una creu de color negre per apropar; al botó verd amb un guió per allunyar la imatge; o en les fletxes verdes per a mapes adjacents.


METAR-TAF: